User: anonymous   Login
Location: Grasslands National Park East Block
(49.0708°N, 106.5295°W)
Time: 19:45:02
(UTC-06:00)
Language:

Transit 2A - Orbit

View from above orbital plane
View from above orbital plane
View from above satellite
View from above satellite

Ground track
Ground track

The orbit data is extracted from the following two-line orbital elements,

1    45U 60007A   19296.14269481 -.00000053  00000-0  13411-4 0  9997
2    45  66.6936 288.8905 0249918 130.2440 232.0816 14.33652390 88547
Epoch (UTC): 23 October 2019 03:25:28
Eccentricity: 0.0249918
inclination: 66.6936°
perigee height: 600 km
apogee height: 958 km
right ascension of ascending node: 288.8905°
argument of perigee: 130.2440°
revolutions per day: 14.33652390
mean anomaly at epoch: 232.0816°
orbit number at epoch: 8854

The dashed part of the orbit path shows where the satellite is in the earth's shadow,  

DLR